| time (UTC) | temp F | wind direction | speed MPH | gust MPH | rain 1hr in | rain 24hr in | rain mn in | humidity % | barometer mb |
| 20260507083535 | 41 | 233 | 9.0 | 15.0 | 0.00 | 0.00 | 0.00 | 77 | 1013.3 |
| 20260507083051 | 41 | 221 | 11.0 | 17.0 | 0.00 | 0.00 | 0.00 | 77 | 1013.4 |
| 20260507082535 | 41 | 217 | 12.0 | 17.0 | 0.00 | 0.00 | 0.00 | 77 | 1013.5 |
| 20260507082037 | 41 | 232 | 11.0 | 16.0 | 0.00 | 0.00 | 0.00 | 78 | 1013.4 |
| 20260507081547 | 41 | 235 | 12.0 | 17.0 | 0.00 | 0.00 | 0.00 | 78 | 1013.5 |
| 20260507081037 | 41 | 240 | 12.0 | 17.0 | 0.00 | 0.00 | 0.00 | 78 | 1013.6 |
| 20260507080535 | 41 | 238 | 11.0 | 18.0 | 0.00 | 0.00 | 0.00 | 78 | 1013.7 |
| 20260507080053 | 41 | 238 | 13.0 | 18.0 | 0.00 | 0.00 | 0.00 | 78 | 1013.8 |
| 20260507075538 | 41 | 248 | 10.0 | 18.0 | 0.00 | 0.00 | 0.00 | 78 | 1013.8 |
| 20260507075034 | 41 | 234 | 12.0 | 18.0 | 0.00 | 0.00 | 0.00 | 78 | 1014.0 |
| 20260507074543 | 41 | 232 | 8.0 | 15.0 | 0.00 | 0.00 | 0.00 | 78 | 1014.1 |
| 20260507074033 | 41 | 213 | 10.0 | 15.0 | 0.00 | 0.00 | 0.00 | 78 | 1014.0 |
| 20260507073534 | 41 | 236 | 10.0 | 14.0 | 0.00 | 0.00 | 0.00 | 79 | 1014.1 |
| 20260507073048 | 41 | 234 | 10.0 | 14.0 | 0.00 | 0.00 | 0.00 | 79 | 1014.1 |
| 20260507072534 | 41 | 224 | 9.0 | 16.0 | 0.00 | 0.00 | 0.00 | 80 | 1014.2 |
| 20260507072034 | 41 | 234 | 9.0 | 17.0 | 0.00 | 0.00 | 0.00 | 80 | 1014.3 |
| 20260507071550 | 41 | 223 | 10.0 | 17.0 | 0.00 | 0.00 | 0.00 | 80 | 1014.3 |
| 20260507071038 | 41 | 236 | 10.0 | 15.0 | 0.00 | 0.00 | 0.00 | 80 | 1014.3 |
| 20260507070533 | 41 | 210 | 10.0 | 15.0 | 0.00 | 0.00 | 0.00 | 80 | 1014.2 |
| 20260507070048 | 41 | 229 | 9.0 | 12.0 | 0.00 | 0.00 | 0.00 | 80 | 1014.3 |
| 20260507065533 | 41 | 226 | 7.0 | 14.0 | 0.00 | 0.00 | 0.00 | 80 | 1014.3 |
| 20260507065034 | 41 | 233 | 9.0 | 14.0 | 0.00 | 0.00 | 0.00 | 80 | 1014.3 |
| 20260507064544 | 41 | 236 | 8.0 | 14.0 | 0.00 | 0.00 | 0.00 | 79 | 1014.2 |
| 20260507064031 | 42 | 221 | 8.0 | 15.0 | 0.00 | 0.00 | 0.00 | 79 | 1014.4 |
| 20260507063533 | 42 | 244 | 10.0 | 15.0 | 0.00 | 0.00 | 0.00 | 79 | 1014.5 |
| 20260507063045 | 42 | 233 | 10.0 | 15.0 | 0.00 | 0.00 | 0.00 | 79 | 1014.6 |
| 20260507062535 | 42 | 238 | 10.0 | 15.0 | 0.00 | 0.00 | 0.00 | 78 | 1014.5 |
| 20260507062034 | 42 | 216 | 10.0 | 15.0 | 0.00 | 0.00 | 0.00 | 78 | 1014.6 |
| 20260507061546 | 42 | 233 | 9.0 | 16.0 | 0.00 | 0.00 | 0.00 | 78 | 1014.6 |
| 20260507061033 | 42 | 217 | 9.0 | 17.0 | 0.00 | 0.00 | 0.00 | 77 | 1014.7 |
| 20260507060533 | 43 | 233 | 11.0 | 17.0 | 0.00 | 0.00 | 0.00 | 77 | 1014.7 |
| 20260507060051 | 43 | 234 | 13.0 | 18.0 | 0.00 | 0.00 | 0.00 | 76 | 1014.7 |
| 20260507055532 | 43 | 227 | 12.0 | 21.0 | 0.00 | 0.00 | 0.00 | 76 | 1014.6 |
| 20260507055034 | 43 | 213 | 14.0 | 21.0 | 0.00 | 0.00 | 0.00 | 76 | 1014.7 |
| 20260507054547 | 43 | 228 | 14.0 | 21.0 | 0.00 | 0.00 | 0.00 | 75 | 1014.9 |
| 20260507054031 | 43 | 229 | 12.0 | 20.0 | 0.00 | 0.00 | 0.00 | 75 | 1014.7 |
| 20260507053534 | 44 | 229 | 11.0 | 20.0 | 0.00 | 0.00 | 0.00 | 75 | 1014.7 |
| 20260507053045 | 44 | 209 | 11.0 | 20.0 | 0.00 | 0.00 | 0.00 | 74 | 1014.8 |
| 20260507052534 | 44 | 222 | 12.0 | 20.0 | 0.00 | 0.00 | 0.00 | 74 | 1014.8 |
| 20260507052033 | 44 | 218 | 12.0 | 20.0 | 0.00 | 0.00 | 0.00 | 74 | 1015.0 |
| 20260507051552 | 44 | 209 | 11.0 | 21.0 | 0.00 | 0.00 | 0.00 | 73 | 1014.9 |
| 20260507051030 | 44 | 213 | 12.0 | 21.0 | 0.00 | 0.00 | 0.00 | 73 | 1015.0 |
| 20260507050530 | 45 | 203 | 13.0 | 21.0 | 0.00 | 0.00 | 0.00 | 72 | 1014.9 |
| 20260507050046 | 45 | 227 | 14.0 | 21.0 | 0.00 | 0.00 | 0.00 | 72 | 1015.2 |
| 20260507045531 | 45 | 233 | 13.0 | 22.0 | 0.00 | 0.00 | 0.00 | 72 | 1015.2 |
| 20260507045034 | 45 | 204 | 14.0 | 22.0 | 0.00 | 0.00 | 0.00 | 72 | 1015.1 |
| 20260507044549 | 45 | 230 | 14.0 | 19.0 | 0.00 | 0.00 | 0.00 | 72 | 1015.1 |
| 20260507044035 | 45 | 218 | 14.0 | 19.0 | 0.00 | 0.00 | 0.00 | 72 | 1015.2 |
| 20260507043534 | 44 | 211 | 13.0 | 19.0 | 0.00 | 0.00 | 0.00 | 72 | 1015.4 |
| 20260507043047 | 44 | 227 | 11.0 | 18.0 | 0.00 | 0.00 | 0.00 | 72 | 1015.5 |
| 20260507042537 | 45 | 215 | 12.0 | 18.0 | 0.00 | 0.00 | 0.00 | 71 | 1015.5 |
| 20260507042034 | 45 | 206 | 11.0 | 19.0 | 0.00 | 0.00 | 0.00 | 70 | 1015.6 |
| 20260507041540 | 45 | 221 | 12.0 | 19.0 | 0.00 | 0.00 | 0.00 | 70 | 1015.6 |
| 20260507041034 | 45 | 219 | 12.0 | 19.0 | 0.00 | 0.00 | 0.00 | 69 | 1015.7 |
| 20260507040533 | 45 | 223 | 11.0 | 19.0 | 0.00 | 0.00 | 0.00 | 68 | 1015.6 |
| 20260507040053 | 45 | 219 | 11.0 | 19.0 | 0.00 | 0.00 | 0.00 | 66 | 1015.7 |
| 20260507035534 | 45 | 217 | 10.0 | 15.0 | 0.00 | 0.00 | 0.00 | 65 | 1015.7 |
| 20260507035031 | 45 | 230 | 10.0 | 17.0 | 0.00 | 0.00 | 0.00 | 64 | 1015.8 |
| 20260507034551 | 46 | 236 | 10.0 | 17.0 | 0.00 | 0.00 | 0.00 | 63 | 1015.7 |
| 20260507034034 | 46 | 215 | 11.0 | 16.0 | 0.00 | 0.00 | 0.00 | 62 | 1015.7 |
| 20260507033534 | 46 | 237 | 11.0 | 16.0 | 0.00 | 0.00 | 0.00 | 62 | 1015.8 |
| 20260507033046 | 46 | 209 | 10.0 | 17.0 | 0.00 | 0.00 | 0.00 | 61 | 1015.7 |
| 20260507032534 | 46 | 206 | 11.0 | 17.0 | 0.00 | 0.00 | 0.00 | 60 | 1015.7 |
| 20260507032033 | 46 | 221 | 9.0 | 14.0 | 0.00 | 0.00 | 0.00 | 59 | 1015.7 |
| 20260507031548 | 46 | 225 | 9.0 | 14.0 | 0.00 | 0.00 | 0.00 | 58 | 1015.8 |
| 20260507031036 | 46 | 214 | 10.0 | 14.0 | 0.00 | 0.00 | 0.00 | 57 | 1015.8 |
| 20260507030534 | 47 | 227 | 10.0 | 14.0 | 0.00 | 0.00 | 0.00 | 56 | 1015.7 |
| 20260507030043 | 47 | 224 | 9.0 | 14.0 | 0.00 | 0.00 | 0.00 | 55 | 1015.9 |
| 20260507025533 | 47 | 232 | 9.0 | 14.0 | 0.00 | 0.00 | 0.00 | 54 | 1015.8 |
| 20260507025033 | 47 | 217 | 8.0 | 12.0 | 0.00 | 0.00 | 0.00 | 53 | 1015.9 |
| 20260507024548 | 47 | 220 | 8.0 | 11.0 | 0.00 | 0.00 | 0.00 | 51 | 1015.9 |
| 20260507024035 | 47 | 212 | 7.0 | 11.0 | 0.00 | 0.00 | 0.00 | 50 | 1015.9 |
| 20260507023536 | 47 | 210 | 7.0 | 11.0 | 0.00 | 0.00 | 0.00 | 49 | 1015.8 |
| 20260507023051 | 48 | 217 | 7.0 | 10.0 | 0.00 | 0.00 | 0.00 | 48 | 1015.7 |
| 20260507022533 | 48 | 213 | 7.0 | 10.0 | 0.00 | 0.00 | 0.00 | 47 | 1015.7 |
| 20260507022034 | 49 | 220 | 6.0 | 8.0 | 0.00 | 0.00 | 0.00 | 46 | 1015.6 |
| 20260507021547 | 49 | 220 | 6.0 | 9.0 | 0.00 | 0.00 | 0.00 | 45 | 1015.6 |
| 20260507021039 | 49 | 224 | 6.0 | 10.0 | 0.00 | 0.00 | 0.00 | 45 | 1015.6 |
| 20260507020535 | 49 | 221 | 7.0 | 12.0 | 0.00 | 0.00 | 0.00 | 45 | 1015.7 |
| 20260507020106 | 50 | 228 | 9.0 | 12.0 | 0.00 | 0.00 | 0.00 | 44 | 1015.6 |
| 20260507015539 | 50 | 219 | 8.0 | 11.0 | 0.00 | 0.00 | 0.00 | 44 | 1015.6 |
| 20260507015036 | 50 | 227 | 6.0 | 9.0 | 0.00 | 0.00 | 0.00 | 44 | 1015.6 |
| 20260507014546 | 51 | 225 | 5.0 | 11.0 | 0.00 | 0.00 | 0.00 | 43 | 1015.6 |
| 20260507014036 | 51 | 222 | 6.0 | 13.0 | 0.00 | 0.00 | 0.00 | 42 | 1015.6 |
| 20260507013535 | 51 | 223 | 7.0 | 13.0 | 0.00 | 0.00 | 0.00 | 41 | 1015.6 |
| 20260507013054 | 52 | 222 | 7.0 | 10.0 | 0.00 | 0.00 | 0.00 | 41 | 1015.6 |
| 20260507012535 | 52 | 208 | 7.0 | 11.0 | 0.00 | 0.00 | 0.00 | 41 | 1015.6 |
| 20260507012036 | 52 | 223 | 7.0 | 11.0 | 0.00 | 0.00 | 0.00 | 40 | 1015.6 |
| 20260507011546 | 52 | 238 | 5.0 | 10.0 | 0.00 | 0.00 | 0.00 | 40 | 1015.7 |
| 20260507011039 | 52 | 252 | 5.0 | 11.0 | 0.00 | 0.00 | 0.00 | 40 | 1015.7 |
| 20260507010535 | 53 | 236 | 7.0 | 11.0 | 0.00 | 0.00 | 0.00 | 39 | 1015.7 |
| 20260507010048 | 53 | 237 | 8.0 | 12.0 | 0.00 | 0.00 | 0.00 | 38 | 1015.6 |
| 20260507005537 | 53 | 239 | 8.0 | 14.0 | 0.00 | 0.00 | 0.00 | 37 | 1015.6 |
| 20260507005039 | 53 | 238 | 8.0 | 17.0 | 0.00 | 0.00 | 0.00 | 36 | 1015.7 |
| 20260507004600 | 54 | 240 | 11.0 | 17.0 | 0.00 | 0.00 | 0.00 | 35 | 1015.7 |
| 20260507004036 | 54 | 243 | 11.0 | 17.0 | 0.00 | 0.00 | 0.00 | 35 | 1015.7 |
| 20260507003536 | 54 | 245 | 10.0 | 17.0 | 0.00 | 0.00 | 0.00 | 33 | 1015.7 |
| 20260507003051 | 55 | 251 | 11.0 | 17.0 | 0.00 | 0.00 | 0.00 | 34 | 1015.7 |
| 20260507002536 | 55 | 254 | 10.0 | 14.0 | 0.00 | 0.00 | 0.00 | 33 | 1015.8 |
| 20260507002036 | 55 | 235 | 8.0 | 16.0 | 0.00 | 0.00 | 0.00 | 35 | 1015.9 |
| 20260507001551 | 54 | 249 | 10.0 | 18.0 | 0.00 | 0.00 | 0.00 | 34 | 1015.9 |
| 20260507001035 | 54 | 245 | 13.0 | 18.0 | 0.00 | 0.00 | 0.00 | 33 | 1015.9 |
| 20260507000536 | 54 | 242 | 13.0 | 18.0 | 0.00 | 0.00 | 0.00 | 34 | 1016.0 |
| 20260507000051 | 55 | 237 | 15.0 | 18.0 | 0.00 | 0.00 | 0.00 | 33 | 1016.0 |
| 20260506235536 | 55 | 238 | 14.0 | 18.0 | 0.00 | 0.00 | 0.00 | 34 | 1016.0 |
| 20260506235038 | 55 | 248 | 10.0 | 18.0 | 0.00 | 0.00 | 0.00 | 34 | 1016.0 |
| 20260506234550 | 54 | 259 | 13.0 | 22.0 | 0.00 | 0.00 | 0.00 | 32 | 1016.1 |
| 20260506234036 | 55 | 258 | 16.0 | 22.0 | 0.00 | 0.00 | 0.00 | 33 | 1016.1 |
| 20260506233536 | 55 | 243 | 15.0 | 19.0 | 0.00 | 0.00 | 0.00 | 35 | 1016.1 |
| 20260506233101 | 54 | 229 | 10.0 | 16.0 | 0.00 | 0.00 | 0.00 | 34 | 1016.3 |
| 20260506232535 | 53 | 267 | 11.0 | 15.0 | 0.00 | 0.00 | 0.00 | 34 | 1016.1 |
| 20260506232035 | 53 | 267 | 10.0 | 15.0 | 0.00 | 0.00 | 0.00 | 34 | 1016.3 |
| 20260506231554 | 53 | 267 | 10.0 | 20.0 | 0.00 | 0.00 | 0.00 | 37 | 1016.3 |
| 20260506231037 | 54 | 242 | 13.0 | 20.0 | 0.00 | 0.00 | 0.00 | 33 | 1016.1 |
| 20260506230533 | 55 | 248 | 14.0 | 20.0 | 0.00 | 0.00 | 0.00 | 34 | 1016.1 |
| 20260506230049 | 55 | 244 | 14.0 | 18.0 | 0.00 | 0.00 | 0.00 | 33 | 1016.0 |
| 20260506225534 | 54 | 254 | 14.0 | 22.0 | 0.00 | 0.02 | 0.00 | 36 | 1016.3 |
| 20260506225034 | 54 | 255 | 13.0 | 22.0 | 0.00 | 0.02 | 0.00 | 33 | 1016.1 |
| 20260506224552 | 55 | 261 | 13.0 | 27.0 | 0.00 | 0.02 | 0.00 | 31 | 1016.3 |
| 20260506224033 | 55 | 263 | 15.0 | 28.0 | 0.00 | 0.02 | 0.00 | 30 | 1016.1 |
| 20260506223533 | 55 | 261 | 16.0 | 28.0 | 0.00 | 0.02 | 0.00 | 33 | 1016.3 |
| 20260506223048 | 54 | 282 | 10.0 | 16.0 | 0.00 | 0.02 | 0.00 | 31 | 1016.4 |
| 20260506222534 | 54 | 271 | 11.0 | 20.0 | 0.00 | 0.02 | 0.00 | 30 | 1016.5 |
| 20260506222034 | 54 | 280 | 11.0 | 20.0 | 0.00 | 0.02 | 0.00 | 32 | 1016.6 |
| 20260506221548 | 54 | 269 | 8.0 | 20.0 | 0.00 | 0.02 | 0.00 | 32 | 1016.5 |
| 20260506221033 | 54 | 248 | 10.0 | 22.0 | 0.00 | 0.02 | 0.00 | 34 | 1016.6 |
| 20260506220533 | 54 | 248 | 16.0 | 22.0 | 0.00 | 0.02 | 0.00 | 32 | 1016.5 |
| 20260506220049 | 54 | 267 | 11.0 | 16.0 | 0.00 | 0.02 | 0.00 | 34 | 1016.8 |
| 20260506215531 | 53 | 254 | 9.0 | 17.0 | 0.00 | 0.02 | 0.00 | 36 | 1016.8 |
| 20260506215036 | 53 | 251 | 11.0 | 21.0 | 0.00 | 0.02 | 0.00 | 37 | 1017.0 |
| 20260506214552 | 53 | 240 | 15.0 | 21.0 | 0.00 | 0.02 | 0.00 | 35 | 1017.1 |
| 20260506214034 | 54 | 225 | 13.0 | 20.0 | 0.00 | 0.02 | 0.00 | 36 | 1017.2 |
| 20260506213534 | 54 | 208 | 12.0 | 22.0 | 0.00 | 0.02 | 0.00 | 34 | 1017.1 |
| 20260506213058 | 54 | 261 | 16.0 | 22.0 | 0.00 | 0.02 | 0.00 | 34 | 1017.2 |
| 20260506212534 | 54 | 271 | 6.0 | 19.0 | 0.00 | 0.02 | 0.00 | 37 | 1017.1 |
| 20260506212034 | 53 | 218 | 2.0 | 10.0 | 0.00 | 0.02 | 0.00 | 37 | 1017.4 |
| 20260506211543 | 52 | 324 | 4.0 | 10.0 | 0.00 | 0.02 | 0.00 | 37 | 1017.3 |
| 20260506211034 | 52 | 250 | 6.0 | 17.0 | 0.00 | 0.02 | 0.00 | 36 | 1017.5 |
| 20260506210534 | 53 | 223 | 8.0 | 17.0 | 0.00 | 0.02 | 0.00 | 35 | 1017.6 |
| 20260506210043 | 53 | 229 | 12.0 | 17.0 | 0.00 | 0.02 | 0.00 | 35 | 1017.6 |
| 20260506205533 | 54 | 248 | 12.0 | 17.0 | 0.00 | 0.02 | 0.00 | 37 | 1017.6 |
| 20260506205033 | 54 | 173 | 7.0 | 14.0 | 0.00 | 0.02 | 0.00 | 35 | 1017.6 |
| 20260506204546 | 53 | 215 | 6.0 | 13.0 | 0.00 | 0.02 | 0.00 | 36 | 1017.8 |
| 20260506204033 | 53 | 213 | 8.0 | 13.0 | 0.00 | 0.02 | 0.00 | 36 | 1018.0 |
| 20260506203533 | 53 | 218 | 7.0 | 18.0 | 0.00 | 0.02 | 0.00 | 35 | 1018.1 |
| 20260506203045 | 54 | 218 | 13.0 | 18.0 | 0.00 | 0.02 | 0.00 | 35 | 1018.1 |
| 20260506202535 | 54 | 264 | 8.0 | 20.0 | 0.00 | 0.02 | 0.00 | 37 | 1018.1 |
| 20260506202031 | 52 | 223 | 10.0 | 20.0 | 0.00 | 0.02 | 0.00 | 35 | 1018.1 |
| 20260506201545 | 52 | 259 | 9.0 | 20.0 | 0.00 | 0.02 | 0.00 | 34 | 1018.1 |
| 20260506201033 | 52 | 232 | 6.0 | 16.0 | 0.00 | 0.02 | 0.00 | 36 | 1018.3 |
| 20260506200533 | 51 | 287 | 10.0 | 16.0 | 0.00 | 0.02 | 0.00 | 34 | 1018.2 |
| 20260506200047 | 52 | 290 | 12.0 | 16.0 | 0.00 | 0.02 | 0.00 | 35 | 1018.1 |
| 20260506195534 | 51 | 209 | 3.0 | 14.0 | 0.00 | 0.02 | 0.00 | 39 | 1018.3 |
| 20260506195037 | 51 | 239 | 9.0 | 14.0 | 0.00 | 0.02 | 0.00 | 35 | 1018.3 |
| 20260506194547 | 51 | 300 | 5.0 | 17.0 | 0.00 | 0.02 | 0.00 | 35 | 1018.3 |
| 20260506194034 | 52 | 265 | 8.0 | 20.0 | 0.00 | 0.02 | 0.00 | 33 | 1018.4 |
| 20260506193536 | 52 | 246 | 14.0 | 20.0 | 0.00 | 0.02 | 0.00 | 36 | 1018.4 |
| 20260506193040 | 52 | 232 | 8.0 | 15.0 | 0.00 | 0.02 | 0.00 | 37 | 1018.4 |
| 20260506192535 | 52 | 234 | 5.0 | 16.0 | 0.00 | 0.02 | 0.00 | 36 | 1018.5 |
| 20260506192034 | 51 | 279 | 9.0 | 16.0 | 0.00 | 0.02 | 0.00 | 36 | 1018.5 |
| 20260506191543 | 52 | 261 | 11.0 | 16.0 | 0.00 | 0.02 | 0.00 | 36 | 1018.5 |
| 20260506191034 | 51 | 242 | 5.0 | 17.0 | 0.00 | 0.02 | 0.00 | 35 | 1018.7 |
| 20260506190536 | 51 | 179 | 4.0 | 17.0 | 0.00 | 0.02 | 0.00 | 36 | 1018.7 |
| 20260506190048 | 51 | 248 | 11.0 | 17.0 | 0.00 | 0.02 | 0.00 | 37 | 1018.8 |
| 20260506185534 | 50 | 267 | 4.0 | 10.0 | 0.00 | 0.02 | 0.00 | 39 | 1018.7 |
| 20260506185034 | 50 | 282 | 3.0 | 9.0 | 0.00 | 0.02 | 0.00 | 40 | 1018.8 |
| 20260506184551 | 50 | 217 | 5.0 | 14.0 | 0.00 | 0.02 | 0.00 | 40 | 1019.1 |
| 20260506184034 | 50 | 248 | 7.0 | 14.0 | 0.00 | 0.02 | 0.00 | 38 | 1019.2 |
| 20260506183533 | 50 | 288 | 7.0 | 17.0 | 0.00 | 0.02 | 0.00 | 41 | 1019.0 |
| 20260506183056 | 50 | 252 | 8.0 | 17.0 | 0.00 | 0.02 | 0.00 | 41 | 1019.3 |
| 20260506182533 | 50 | 240 | 5.0 | 14.0 | 0.00 | 0.02 | 0.00 | 42 | 1019.2 |
| 20260506182034 | 49 | 256 | 7.0 | 14.0 | 0.00 | 0.02 | 0.00 | 38 | 1019.5 |
| 20260506181609 | 49 | 205 | 1.0 | 8.0 | 0.00 | 0.02 | 0.00 | 42 | 1019.5 |
| 20260506181034 | 49 | 84 | 4.0 | 11.0 | 0.00 | 0.02 | 0.00 | 39 | 1019.6 |
| 20260506180534 | 50 | 271 | 3.0 | 11.0 | 0.00 | 0.02 | 0.00 | 44 | 1019.7 |
| 20260506180051 | 49 | 231 | 4.0 | 14.0 | 0.00 | 0.02 | 0.00 | 44 | 1019.8 |
| 20260506175533 | 49 | 225 | 8.0 | 14.0 | 0.00 | 0.02 | 0.00 | 44 | 1019.9 |
| 20260506175037 | 49 | 204 | 9.0 | 14.0 | 0.00 | 0.02 | 0.00 | 43 | 1019.9 |
| 20260506174545 | 49 | 244 | 3.0 | 12.0 | 0.00 | 0.02 | 0.00 | 42 | 1019.9 |
| 20260506174034 | 49 | 310 | 2.0 | 13.0 | 0.00 | 0.02 | 0.00 | 44 | 1020.0 |
| 20260506173535 | 48 | 280 | 7.0 | 13.0 | 0.00 | 0.02 | 0.00 | 42 | 1020.0 |
| 20260506173057 | 48 | 226 | 8.0 | 13.0 | 0.00 | 0.02 | 0.00 | 43 | 1020.0 |
| 20260506172536 | 49 | 257 | 7.0 | 12.0 | 0.00 | 0.02 | 0.00 | 43 | 1019.9 |
| 20260506172035 | 48 | 38 | 2.0 | 11.0 | 0.00 | 0.02 | 0.00 | 46 | 1020.0 |
| 20260506171546 | 48 | 265 | 7.0 | 11.0 | 0.00 | 0.02 | 0.00 | 43 | 1020.0 |
| 20260506171034 | 48 | 275 | 6.0 | 9.0 | 0.00 | 0.02 | 0.00 | 44 | 1020.0 |
| 20260506170534 | 48 | 0 | 5.0 | 8.0 | 0.00 | 0.02 | 0.00 | 45 | 1020.0 |
| 20260506170052 | 48 | 268 | 3.0 | 6.0 | 0.00 | 0.02 | 0.00 | 45 | 1020.0 |
| 20260506165535 | 47 | 0 | 1.0 | 8.0 | 0.00 | 0.04 | 0.00 | 45 | 1020.1 |
| 20260506165035 | 47 | 0 | 1.0 | 13.0 | 0.00 | 0.04 | 0.00 | 45 | 1020.0 |
| 20260506164544 | 47 | 249 | 3.0 | 13.0 | 0.00 | 0.04 | 0.00 | 45 | 1020.0 |
| 20260506164034 | 47 | 277 | 8.0 | 13.0 | 0.00 | 0.04 | 0.00 | 44 | 1020.0 |
| 20260506163534 | 47 | 295 | 4.0 | 9.0 | 0.00 | 0.04 | 0.00 | 46 | 1020.0 |
| 20260506163050 | 47 | 282 | 7.0 | 9.0 | 0.00 | 0.04 | 0.00 | 44 | 1020.0 |
| 20260506162531 | 47 | 307 | 3.0 | 7.0 | 0.00 | 0.04 | 0.00 | 46 | 1020.0 |
| 20260506162034 | 47 | 41 | 3.0 | 8.0 | 0.00 | 0.04 | 0.00 | 44 | 1019.9 |
| 20260506161548 | 47 | 360 | 1.0 | 13.0 | 0.00 | 0.04 | 0.00 | 46 | 1020.0 |
| 20260506161033 | 47 | 268 | 5.0 | 13.0 | 0.00 | 0.04 | 0.00 | 47 | 1019.9 |
| 20260506160533 | 47 | 273 | 6.0 | 11.0 | 0.00 | 0.04 | 0.00 | 46 | 1020.0 |
| 20260506160054 | 47 | 296 | 2.0 | 11.0 | 0.00 | 0.04 | 0.00 | 49 | 1019.9 |
| 20260506155534 | 46 | 49 | 2.0 | 11.0 | 0.00 | 0.05 | 0.00 | 49 | 1019.9 |
| 20260506155034 | 46 | 16 | 6.0 | 11.0 | 0.00 | 0.05 | 0.00 | 51 | 1019.9 |
| 20260506154546 | 47 | 34 | 5.0 | 11.0 | 0.00 | 0.05 | 0.00 | 47 | 1019.8 |
| 20260506154034 | 47 | 16 | 4.0 | 12.0 | 0.00 | 0.05 | 0.00 | 46 | 1019.8 |
| 20260506153534 | 46 | 286 | 8.0 | 12.0 | 0.00 | 0.05 | 0.00 | 47 | 1019.7 |
| 20260506153106 | 47 | 292 | 9.0 | 12.0 | 0.00 | 0.05 | 0.00 | 46 | 1019.7 |
| 20260506152534 | 47 | 270 | 1.0 | 10.0 | 0.00 | 0.05 | 0.00 | 47 | 1019.7 |
| 20260506152034 | 46 | 39 | 5.0 | 11.0 | 0.00 | 0.05 | 0.00 | 48 | 1019.8 |
| 20260506151544 | 46 | 342 | 9.0 | 11.0 | 0.00 | 0.05 | 0.00 | 46 | 1019.7 |
| 20260506151038 | 47 | 55 | 1.0 | 6.0 | 0.00 | 0.05 | 0.00 | 49 | 1019.8 |
| 20260506150534 | 46 | 0 | 3.0 | 11.0 | 0.00 | 0.05 | 0.00 | 47 | 1019.9 |
| 20260506150058 | 46 | 20 | 6.0 | 11.0 | 0.00 | 0.05 | 0.00 | 49 | 1019.8 |
| 20260506145535 | 46 | 355 | 4.0 | 9.0 | 0.00 | 0.06 | 0.00 | 49 | 1019.9 |
| 20260506145034 | 46 | 316 | 2.0 | 6.0 | 0.00 | 0.06 | 0.00 | 48 | 1019.9 |
| 20260506144554 | 46 | 0 | 2.0 | 6.0 | 0.00 | 0.06 | 0.00 | 47 | 1020.0 |
| 20260506144033 | 46 | 267 | 1.0 | 9.0 | 0.00 | 0.06 | 0.00 | 47 | 1020.0 |
| 20260506143534 | 46 | 287 | 4.0 | 9.0 | 0.00 | 0.06 | 0.00 | 51 | 1020.0 |
| 20260506143048 | 46 | 318 | 3.0 | 8.0 | 0.00 | 0.06 | 0.00 | 48 | 1020.0 |
| 20260506142534 | 46 | 284 | 1.0 | 9.0 | 0.00 | 0.06 | 0.00 | 48 | 1020.0 |
| 20260506142034 | 45 | 38 | 5.0 | 9.0 | 0.00 | 0.06 | 0.00 | 47 | 1020.0 |
| 20260506141542 | 46 | 326 | 3.0 | 8.0 | 0.00 | 0.06 | 0.00 | 48 | 1020.0 |
| 20260506141034 | 46 | 348 | 0.0 | 3.0 | 0.00 | 0.06 | 0.00 | 49 | 1020.0 |
| 20260506140537 | 46 | 0 | 1.0 | 3.0 | 0.00 | 0.06 | 0.00 | 49 | 1019.9 |
| 20260506140043 | 46 | 89 | 1.0 | 5.0 | 0.00 | 0.06 | 0.00 | 52 | 1019.8 |
| 20260506135533 | 45 | 0 | 0.0 | 6.0 | 0.00 | 0.09 | 0.00 | 52 | 1019.9 |
| 20260506135033 | 45 | 113 | 3.0 | 6.0 | 0.00 | 0.09 | 0.00 | 55 | 1019.7 |
| 20260506134549 | 44 | 82 | 2.0 | 5.0 | 0.00 | 0.09 | 0.00 | 56 | 1019.6 |
| 20260506134036 | 44 | 74 | 2.0 | 7.0 | 0.00 | 0.09 | 0.00 | 60 | 1019.8 |
| 20260506133535 | 43 | 61 | 3.0 | 7.0 | 0.00 | 0.09 | 0.00 | 59 | 1019.6 |
| 20260506133048 | 43 | 86 | 4.0 | 7.0 | 0.00 | 0.09 | 0.00 | 61 | 1019.5 |
| 20260506132536 | 43 | 94 | 3.0 | 4.0 | 0.00 | 0.09 | 0.00 | 63 | 1019.4 |
| 20260506132031 | 43 | 108 | 1.0 | 3.0 | 0.00 | 0.09 | 0.00 | 66 | 1019.6 |
| 20260506131554 | 43 | 151 | 1.0 | 2.0 | 0.00 | 0.09 | 0.00 | 68 | 1019.5 |
| 20260506131033 | 42 | 110 | 0.0 | 1.0 | 0.00 | 0.09 | 0.00 | 70 | 1019.4 |
| 20260506130531 | 41 | 0 | 0.0 | 2.0 | 0.00 | 0.09 | 0.00 | 71 | 1019.4 |
| 20260506130048 | 40 | 0 | 0.0 | 3.0 | 0.00 | 0.09 | 0.00 | 69 | 1019.3 |
| 20260506125534 | 40 | 59 | 2.0 | 3.0 | 0.00 | 0.10 | 0.00 | 69 | 1019.3 |
| 20260506125034 | 39 | 60 | 2.0 | 4.0 | 0.00 | 0.10 | 0.00 | 69 | 1019.3 |
| 20260506124544 | 39 | 57 | 2.0 | 4.0 | 0.00 | 0.10 | 0.00 | 70 | 1018.9 |
| 20260506124035 | 39 | 57 | 3.0 | 4.0 | 0.00 | 0.10 | 0.00 | 72 | 1018.9 |
| 20260506123536 | 39 | 46 | 2.0 | 3.0 | 0.00 | 0.10 | 0.00 | 74 | 1018.8 |
| 20260506123043 | 39 | 65 | 1.0 | 3.0 | 0.00 | 0.10 | 0.00 | 75 | 1018.8 |
| 20260506122531 | 38 | 57 | 2.0 | 3.0 | 0.00 | 0.10 | 0.00 | 74 | 1018.7 |
| 20260506122034 | 38 | 34 | 1.0 | 2.0 | 0.00 | 0.10 | 0.00 | 76 | 1018.6 |
| 20260506121548 | 38 | 34 | 1.0 | 2.0 | 0.00 | 0.10 | 0.00 | 76 | 1018.7 |
| 20260506121035 | 38 | 34 | 1.0 | 6.0 | 0.00 | 0.10 | 0.00 | 75 | 1018.7 |
| 20260506120535 | 39 | 34 | 1.0 | 6.0 | 0.00 | 0.10 | 0.00 | 73 | 1018.7 |
| 20260506120047 | 39 | 45 | 3.0 | 6.0 | 0.00 | 0.10 | 0.00 | 70 | 1018.6 |
| 20260506115534 | 38 | 39 | 3.0 | 5.0 | 0.00 | 0.10 | 0.00 | 73 | 1018.5 |
| 20260506115033 | 38 | 26 | 3.0 | 6.0 | 0.00 | 0.10 | 0.00 | 74 | 1018.5 |
| 20260506114544 | 38 | 32 | 4.0 | 8.0 | 0.00 | 0.10 | 0.00 | 72 | 1018.3 |
| 20260506114036 | 38 | 37 | 5.0 | 9.0 | 0.00 | 0.10 | 0.00 | 73 | 1018.2 |
| 20260506113534 | 38 | 37 | 6.0 | 9.0 | 0.00 | 0.10 | 0.00 | 75 | 1018.2 |
| 20260506113043 | 39 | 32 | 6.0 | 9.0 | 0.00 | 0.10 | 0.00 | 72 | 1018.2 |
| 20260506112534 | 38 | 47 | 5.0 | 8.0 | 0.00 | 0.10 | 0.00 | 72 | 1018.0 |
| 20260506112037 | 38 | 38 | 5.0 | 10.0 | 0.00 | 0.10 | 0.00 | 74 | 1018.0 |
| 20260506111540 | 38 | 38 | 6.0 | 10.0 | 0.00 | 0.10 | 0.00 | 74 | 1018.0 |
| 20260506111033 | 38 | 38 | 5.0 | 9.0 | 0.00 | 0.10 | 0.00 | 74 | 1017.9 |
| 20260506110534 | 38 | 46 | 6.0 | 11.0 | 0.00 | 0.10 | 0.00 | 73 | 1017.9 |
| 20260506110040 | 38 | 43 | 8.0 | 12.0 | 0.00 | 0.10 | 0.00 | 73 | 1017.7 |
| 20260506105534 | 38 | 49 | 8.0 | 12.0 | 0.00 | 0.10 | 0.00 | 73 | 1017.6 |
| 20260506105037 | 38 | 42 | 10.0 | 12.0 | 0.00 | 0.10 | 0.00 | 72 | 1017.6 |
| 20260506104550 | 38 | 49 | 8.0 | 11.0 | 0.00 | 0.10 | 0.00 | 73 | 1017.7 |
| 20260506104034 | 38 | 43 | 7.0 | 11.0 | 0.00 | 0.10 | 0.00 | 73 | 1017.7 |
| 20260506103536 | 38 | 33 | 7.0 | 12.0 | 0.00 | 0.10 | 0.00 | 74 | 1017.6 |
| 20260506103053 | 38 | 44 | 9.0 | 12.0 | 0.00 | 0.10 | 0.00 | 74 | 1017.7 |
| 20260506102535 | 38 | 30 | 7.0 | 12.0 | 0.00 | 0.10 | 0.00 | 75 | 1017.7 |
| 20260506102031 | 38 | 45 | 8.0 | 12.0 | 0.00 | 0.10 | 0.00 | 75 | 1017.7 |
| 20260506101544 | 39 | 38 | 8.0 | 10.0 | 0.00 | 0.10 | 0.00 | 74 | 1017.8 |
| 20260506101035 | 39 | 36 | 8.0 | 10.0 | 0.00 | 0.10 | 0.00 | 71 | 1017.8 |
| 20260506100534 | 39 | 46 | 7.0 | 10.0 | 0.00 | 0.10 | 0.00 | 71 | 1017.6 |
| 20260506100049 | 39 | 44 | 8.0 | 10.0 | 0.00 | 0.10 | 0.00 | 72 | 1017.4 |
| 20260506095535 | 38 | 37 | 7.0 | 9.0 | 0.00 | 0.10 | 0.00 | 73 | 1017.3 |
| 20260506095034 | 38 | 45 | 6.0 | 9.0 | 0.00 | 0.10 | 0.00 | 74 | 1017.2 |
| 20260506094549 | 38 | 50 | 7.0 | 10.0 | 0.00 | 0.10 | 0.00 | 74 | 1017.1 |
| 20260506094038 | 38 | 61 | 7.0 | 10.0 | 0.00 | 0.10 | 0.00 | 75 | 1017.1 |
| 20260506093538 | 38 | 56 | 7.0 | 10.0 | 0.00 | 0.10 | 0.00 | 76 | 1017.1 |
| 20260506093047 | 39 | 54 | 7.0 | 11.0 | 0.00 | 0.10 | 0.00 | 77 | 1017.1 |
| 20260506092536 | 39 | 51 | 8.0 | 11.0 | 0.00 | 0.10 | 0.00 | 77 | 1017.2 |
| 20260506092035 | 39 | 41 | 6.0 | 9.0 | 0.00 | 0.10 | 0.00 | 80 | 1017.1 |
| 20260506091554 | 39 | 57 | 6.0 | 9.0 | 0.00 | 0.10 | 0.00 | 80 | 1017.0 |
| 20260506091036 | 39 | 49 | 7.0 | 10.0 | 0.00 | 0.10 | 0.00 | 80 | 1017.1 |
| 20260506090537 | 39 | 46 | 6.0 | 10.0 | 0.00 | 0.10 | 0.00 | 80 | 1017.0 |
| 20260506090058 | 39 | 49 | 7.0 | 10.0 | 0.00 | 0.10 | 0.00 | 79 | 1016.9 |
| 20260506085534 | 39 | 47 | 8.0 | 11.0 | 0.00 | 0.10 | 0.00 | 80 | 1016.8 |
| 20260506085034 | 39 | 47 | 9.0 | 12.0 | 0.00 | 0.10 | 0.00 | 79 | 1016.7 |
| 20260506084548 | 39 | 51 | 7.0 | 12.0 | 0.00 | 0.10 | 0.00 | 80 | 1016.7 |
| 20260506084034 | 39 | 48 | 10.0 | 12.0 | 0.00 | 0.10 | 0.00 | 80 | 1016.9 |